Location: Alamo Park
(40.5930°N, 111.8994°W)
Time: 12:14:47
(UTC+00:00)

Daily predictions for brighter satellites

Satellite Brightness Start Highest point End
(mag) Time Altitude Azimuth Time Altitude Azimuth Time Altitude Azimuth
Cosmos 2098 Rocket 3.7 12:04:58 49° N 12:06:35 80° E 12:12:23 10° S
CZ-3 Stage 3 4.4 12:06:43 35° WSW 12:12:12 57° S 12:50:31 10° ESE
COSMO-SKYMED 1 4.4 12:12:48 10° SE 12:16:15 27° ENE 12:19:33 11° NNE
Timation 1 Rocket 4.4 12:19:40 56° NW 12:19:40 56° NW 12:24:58 10° NNE
COSMOS 2406 4.0 12:14:57 10° S 12:20:24 51° ESE 12:25:53 10° NNE
Cosmos 220 Rocket 4.3 12:26:18 10° S 12:30:16 59° ESE 12:34:18 10° NNE
SL-24 R/B - RUBIN 2 3.3 12:31:09 79° SW 12:31:09 79° SW 12:35:28 10° SSE
SL-8 R/B 3.7 12:32:41 59° SW 12:32:50 59° SW 12:37:30 10° SE
COSMOS 2455 3.1 12:29:40 25° NNW 12:33:13 65° ENE 12:39:11 10° SE
Cosmos 2082 Rocket 2.1 12:31:41 39° SW 12:33:44 65° WNW 12:39:20 10° NNE
Cosmos 2279 Rocket 4.1 12:32:30 43° NW 12:33:55 51° W 12:39:56 10° SSW
SL-16 R/B 3.8 12:30:25 10° N 12:35:23 30° ENE 12:40:18 10° ESE
Cosmos 1606 Rocket 3.9 12:32:44 19° N 12:35:48 65° E 12:40:09 10° SSE
Cosmos 841 Rocket 3.4 12:35:28 10° SSW 12:40:41 88° WNW 12:45:58 10° NNE
Cosmos 1346 Rocket 4.5 12:41:16 10° SSW 12:47:31 19° N 12:48:39 10° N
Cosmos 2180 Rocket 4.5 12:40:14 11° NNW 12:46:15 59° W 12:52:26 10° S
CZ-4 R/B 3.6 12:42:38 10° NNE 12:47:17 82° WNW 12:51:53 10° SSW
FengYun 1-2 T 4.3 12:41:53 10° N 12:47:22 53° WNW 12:52:49 10° SW
Delta 2 Rocket 4.0 12:49:48 28° S 12:49:48 28° S 12:52:18 10° SE
Cosmos 1484 Rocket 4.1 12:48:38 10° NNE 12:51:48 35° E 12:54:55 10° SSE
Cosmos 546 4.5 12:54:41 54° NW 12:55:28 88° NNE 12:59:14 10° SE
Cosmos 1980 Rocket 2.7 12:57:59 32° WNW 12:59:25 38° WSW 13:04:30 10° S
IRS-1D 3.5 12:56:19 10° N 13:01:11 53° WNW 13:06:06 10° SSW
Cosmos 2369 3.6 12:58:39 21° NNW 13:02:32 67° WSW 13:08:07 10° S
Cosmos 1726 Rocket 3.4 12:58:19 10° N 13:02:42 87° W 13:06:55 10° S
Cosmos 1898 Rocket 3.4 13:00:21 18° NNW 13:04:16 70° WSW 13:09:29 10° S
Cosmos 2026 Rocket 3.9 12:58:23 10° S 13:04:25 85° E 13:10:31 10° N
Tiangong -2.1 13:03:55 53° WSW 13:04:30 71° SSW 13:07:44 10° ESE
BREEZE-M DEB (TANK) 4.1 13:07:29 27° NNW 13:07:29 27° NNW 13:09:31 10° NE
BREEZE-M DEB (TANK) 4.1 13:11:54 12° NNE 13:11:54 12° NNE 13:12:35 10° NE
Cosmos 1892 Rocket 3.5 13:13:19 10° SSW 13:17:36 61° W 13:21:57 10° N
Helios 1A Rocket 2.4 13:14:36 10° S 13:17:52 57° WSW 13:20:11 18° NNW
NOAA 12 4.5 13:16:59 10° N 13:21:54 40° WNW 13:26:46 10° SW
NOSS 3-1 (C) 4.2 13:15:21 12° NW 13:22:25 88° SW 13:31:34 10° SSE
Cosmos 2333 Rocket 3.0 13:17:08 10° NNW 13:22:47 53° ENE 13:28:22 10° SE
Cosmos 1092 Rocket 3.9 13:20:59 10° SSW 13:27:16 74° W 13:33:32 10° N
SL-4 R/B 3.7 13:26:02 11° NNW 13:27:17 13° N 13:28:53 10° NE
NOSS 2-1 (D) 3.7 13:25:53 20° NW 13:28:29 58° WSW 13:33:35 10° SSE
Cosmos 858 Rocket 4.4 13:24:27 10° NNW 13:29:38 81° WSW 13:34:49 10° SSE
Cosmos 1937 Rocket 3.5 13:24:58 10° NNW 13:29:58 55° WSW 13:34:57 10° S
USA 59 Rocket 0.4 13:29:10 19° NW 13:31:50 49° WSW 13:36:58 10° SSE
Cosmos 2360 Rocket 3.3 13:26:41 10° N 13:32:01 42° ENE 13:37:17 10° SE
ARIANE 5 R/B 4.2 13:28:01 10° NNE 13:32:54 38° E 13:37:43 10° SSE
NOSS 2-1 (E) 3.6 13:32:11 16° NW 13:35:11 64° WSW 13:40:17 10° SSE
Cosmos 1743 4.3 13:34:53 10° SSE 13:37:47 31° E 13:40:42 10° NNE
Meteor 2-3 Rocket 4.4 13:43:53 10° SW 13:49:01 34° WNW 13:54:09 10° N
IRIDIUM 103 4.3 13:44:19 10° S 13:49:31 87° W 13:54:46 10° N
Cosmos 1814 Rocket 4.0 13:45:14 10° SSW 13:50:26 87° WNW 13:55:45 10° NNE
Cosmos 2219 Rocket 3.6 13:46:06 10° N 13:51:18 36° ENE 13:56:25 10° SE
Meteor 1-26 Rocket 4.2 13:45:53 10° NNW 13:51:19 63° W 13:56:56 10° S
COSMO-SKYMED 1 3.6 13:48:12 10° SSW 13:51:30 23° W 13:54:51 10° NW
Cosmos 2058 Rocket 3.2 13:47:48 10° NNW 13:52:07 52° W 13:56:22 10° S
CBERS-1 4.0 13:47:53 10° N 13:52:55 61° WNW 13:57:54 10° SSW
Cosmos-2242 3.1 13:49:03 10° NNW 13:53:10 54° W 13:57:16 10° S
Cosmos 2322 Rocket 2.5 13:47:54 10° NNW 13:53:36 70° ENE 13:59:14 10° SSE
USA 267 4.3 13:48:54 10° NE 13:55:15 51° SE 14:01:32 10° SSW
NOSS 2-1 (C) 4.4 13:52:12 11° WNW 13:55:38 34° WSW 14:00:22 10° S
SMAP 3.0 13:57:26 10° N 14:02:06 76° WNW 14:06:44 10° SSW
BREEZE M DEB (TANK) 1.8 14:00:19 10° WSW 14:02:33 58° NNW 14:06:43 10° NE
Thor Agena Rocket 3.4 13:58:21 10° N 14:03:24 71° WNW 14:08:24 10° SSW
COSMOS 2406 4.2 14:00:25 10° WSW 14:04:57 24° NW 14:09:30 10° N
ATLAS 2AS CENTAUR R/B 3.5 13:59:34 10° SSW 14:06:32 60° ESE 14:13:20 10° NE
BREEZE-M DEB (TANK) 3.3 14:04:02 10° WNW 14:07:19 66° NNE 14:16:39 10° ESE
IRIDIUM 106 4.4 14:02:44 10° SSW 14:07:51 58° W 14:13:01 10° N
Landsat 7 3.8 14:03:37 10° N 14:08:17 82° WNW 14:12:56 10° SSW
